When you browse on this site, cookies collect data to enhance your experience and personalize the content and advertising you see.
Visit our Privacy Policy to learn more. By continuing to use the site, you agree to this use of cookies and data.
  • In Czech Republic
  • List of Countries
  • For 7 days
  • Water Temperature
  • Satellite Maps
  • Weather Map
  • Weather Widgets
  • user-avatar
    Login

    Hourly Weather Sevan

    Today, 24 July, Wednesday

    Time Temperature Precipitation Wind Pressure Humidity
    00:00 +21°C° 0 mm 4 mps 639 mmHg 73%
    01:00 +21°C° 0 mm 3 mps 639 mmHg 73%
    02:00 +21°C° 0 mm 3 mps 639 mmHg 73%
    03:00 +20°C° 0 mm 2 mps 639 mmHg 74%
    04:00 +20°C° 0 mm 2 mps 639 mmHg 72%
    05:00 +21°C° 0 mm 2 mps 639 mmHg 71%
    06:00 +21°C° 0 mm 2 mps 639 mmHg 70%
    07:00 +24°C° 0 mm 2 mps 640 mmHg 64%
    08:00 +26°C° 0 mm 2 mps 640 mmHg 58%
    09:00 +28°C° 0 mm 2 mps 641 mmHg 52%
    10:00 +29°C° 0 mm 2 mps 641 mmHg 46%
    11:00 +31°C° 0 mm 3 mps 641 mmHg 41%
    12:00 +33°C° 0 mm 3 mps 641 mmHg 36%
    13:00 +34°C° 0.1 mm 3 mps 641 mmHg 34%
    14:00 +34°C° 0.1 mm 3 mps 641 mmHg 31%
    15:00 +35°C° 0.1 mm 2 mps 640 mmHg 29%
    16:00 +34°C° 0 mm 2 mps 640 mmHg 34%
    17:00 +32°C° 0 mm 2 mps 640 mmHg 40%
    18:00 +30°C° 0 mm 2 mps 640 mmHg 46%
    19:00 +28°C° 0 mm 2 mps 640 mmHg 51%
    20:00 +26°C° 0 mm 3 mps 640 mmHg 56%
    21:00 +24°C° 0 mm 3 mps 639 mmHg 61%
    22:00 +22°C° 0 mm 3 mps 639 mmHg 58%
    23:00 +23°C° 0 mm 2 mps 640 mmHg 55%

    Tomorrow, 25 July, Thursday

    Time Temperature Precipitation Wind Pressure Humidity
    00:00 +21°C° 0 mm 2 mps 640 mmHg 52%
    01:00 +20°C° 0 mm 2 mps 639 mmHg 51%
    02:00 +20°C° 0 mm 2 mps 639 mmHg 50%
    03:00 +20°C° 0 mm 2 mps 639 mmHg 50%
    04:00 +21°C° 0 mm 1 mps 639 mmHg 48%
    05:00 +22°C° 0 mm 1 mps 640 mmHg 47%
    06:00 +22°C° 0 mm 1 mps 640 mmHg 46%
    07:00 +24°C° 0 mm 2 mps 641 mmHg 38%
    08:00 +27°C° 0 mm 2 mps 641 mmHg 31%
    09:00 +29°C° 0 mm 2 mps 642 mmHg 24%
    10:00 +30°C° 0 mm 3 mps 642 mmHg 22%
    11:00 +31°C° 0 mm 3 mps 642 mmHg 21%
    12:00 +33°C° 0 mm 4 mps 642 mmHg 19%
    13:00 +33°C° 0 mm 3 mps 642 mmHg 18%
    14:00 +34°C° 0 mm 3 mps 641 mmHg 17%
    15:00 +34°C° 0 mm 3 mps 641 mmHg 16%
    16:00 +34°C° 0 mm 3 mps 641 mmHg 20%
    17:00 +33°C° 0 mm 3 mps 641 mmHg 24%
    18:00 +31°C° 0 mm 3 mps 641 mmHg 28%
    19:00 +28°C° 0 mm 3 mps 640 mmHg 38%
    20:00 +25°C° 0 mm 3 mps 640 mmHg 48%
    21:00 +21°C° 0 mm 4 mps 640 mmHg 58%
    22:00 +21°C° 0 mm 3 mps 640 mmHg 59%
    23:00 +20°C° 0 mm 3 mps 640 mmHg 59%

    Day after tomorrow, 26 July, Friday

    Time Temperature Precipitation Wind Pressure Humidity
    00:00 +20°C° 0 mm 2 mps 640 mmHg 59%
    01:00 +19°C° 0 mm 2 mps 640 mmHg 62%
    02:00 +18°C° 0 mm 2 mps 640 mmHg 64%
    03:00 +18°C° 0 mm 2 mps 640 mmHg 67%
    04:00 +19°C° 0 mm 1 mps 640 mmHg 65%
    05:00 +20°C° 0 mm 1 mps 640 mmHg 63%
    06:00 +20°C° 0 mm 1 mps 641 mmHg 61%
    07:00 +22°C° 0 mm 1 mps 641 mmHg 57%
    08:00 +24°C° 0 mm 2 mps 641 mmHg 52%
    09:00 +26°C° 0 mm 2 mps 642 mmHg 48%
    10:00 +27°C° 0.1 mm 2 mps 642 mmHg 42%
    11:00 +29°C° 0.1 mm 2 mps 642 mmHg 37%
    12:00 +30°C° 0.1 mm 3 mps 642 mmHg 31%
    13:00 +31°C° 0.1 mm 3 mps 642 mmHg 30%
    14:00 +31°C° 0.1 mm 3 mps 642 mmHg 29%
    15:00 +33°C° 0.1 mm 3 mps 641 mmHg 28%
    16:00 +30°C° 0.1 mm 4 mps 641 mmHg 34%
    17:00 +29°C° 0.1 mm 4 mps 640 mmHg 41%
    18:00 +27°C° 0.1 mm 5 mps 640 mmHg 48%
    19:00 +25°C° 0 mm 5 mps 640 mmHg 54%
    20:00 +23°C° 0 mm 5 mps 640 mmHg 59%
    21:00 +21°C° 0 mm 5 mps 640 mmHg 65%
    22:00 +20°C° 0 mm 4 mps 640 mmHg 65%
    23:00 +20°C° 0 mm 4 mps 640 mmHg 65%

    27 July, Saturday

    Time Temperature Precipitation Wind Pressure Humidity
    00:00 +19°C° 0 mm 3 mps 640 mmHg 65%
    01:00 +19°C° 0 mm 3 mps 640 mmHg 66%
    02:00 +18°C° 0 mm 3 mps 639 mmHg 67%
    03:00 +18°C° 0 mm 3 mps 639 mmHg 67%
    04:00 +18°C° 0 mm 2 mps 639 mmHg 66%
    05:00 +19°C° 0 mm 2 mps 639 mmHg 65%
    06:00 +19°C° 0 mm 2 mps 639 mmHg 64%
    07:00 +21°C° 0 mm 2 mps 639 mmHg 59%
    08:00 +24°C° 0 mm 2 mps 640 mmHg 54%
    09:00 +26°C° 0 mm 1 mps 640 mmHg 49%
    10:00 +27°C° 0.1 mm 2 mps 640 mmHg 45%
    11:00 +29°C° 0.1 mm 2 mps 640 mmHg 41%
    12:00 +30°C° 0.1 mm 3 mps 640 mmHg 37%
    13:00 +31°C° 0.2 mm 3 mps 640 mmHg 35%
    14:00 +31°C° 0.2 mm 3 mps 640 mmHg 34%
    15:00 +33°C° 0.2 mm 3 mps 640 mmHg 32%
    16:00 +30°C° 0.1 mm 3 mps 639 mmHg 39%
    17:00 +29°C° 0.1 mm 4 mps 638 mmHg 47%
    18:00 +27°C° 0.1 mm 4 mps 638 mmHg 54%
    19:00 +25°C° 0 mm 4 mps 637 mmHg 59%
    20:00 +22°C° 0 mm 5 mps 637 mmHg 65%
    21:00 +20°C° 0 mm 5 mps 637 mmHg 70%
    22:00 +20°C° 0.1 mm 4 mps 637 mmHg 71%
    23:00 +19°C° 0.1 mm 4 mps 637 mmHg 72%

    28 July, Sunday

    Time Temperature Precipitation Wind Pressure Humidity
    00:00 +19°C° 0.1 mm 3 mps 637 mmHg 73%
    01:00 +19°C° 0.2 mm 3 mps 637 mmHg 75%
    02:00 +18°C° 0.2 mm 3 mps 637 mmHg 76%
    03:00 +18°C° 0.2 mm 2 mps 636 mmHg 77%
    04:00 +18°C° 0 mm 2 mps 637 mmHg 77%
    05:00 +18°C° 0 mm 2 mps 637 mmHg 76%
    06:00 +19°C° 0 mm 2 mps 637 mmHg 76%
    07:00 +21°C° 0 mm 2 mps 638 mmHg 69%
    08:00 +23°C° 0 mm 1 mps 638 mmHg 62%
    09:00 +25°C° 0 mm 1 mps 639 mmHg 55%
    10:00 +27°C° 0.2 mm 2 mps 639 mmHg 50%
    11:00 +28°C° 0.2 mm 2 mps 639 mmHg 46%
    12:00 +30°C° 0.2 mm 2 mps 639 mmHg 41%
    13:00 +30°C° 0.2 mm 2 mps 639 mmHg 39%
    14:00 +31°C° 0.2 mm 3 mps 638 mmHg 37%
    15:00 +33°C° 0.2 mm 3 mps 638 mmHg 35%
    16:00 +30°C° 0.2 mm 4 mps 638 mmHg 41%
    17:00 +29°C° 0.2 mm 4 mps 638 mmHg 46%
    18:00 +28°C° 0.2 mm 4 mps 637 mmHg 52%
    19:00 +26°C° 0 mm 4 mps 637 mmHg 57%
    20:00 +23°C° 0 mm 4 mps 637 mmHg 62%
    21:00 +21°C° 0 mm 4 mps 637 mmHg 67%
    22:00 +21°C° 0.3 mm 4 mps 637 mmHg 68%
    23:00 +20°C° 0.3 mm 3 mps 637 mmHg 69%

    29 July, Monday

    Time Temperature Precipitation Wind Pressure Humidity
    00:00 +19°C° 0.3 mm 3 mps 637 mmHg 70%
    01:00 +19°C° 0.4 mm 3 mps 637 mmHg 71%
    02:00 +19°C° 0.4 mm 2 mps 637 mmHg 72%
    03:00 +18°C° 0.4 mm 2 mps 637 mmHg 74%
    04:00 +19°C° 0.2 mm 2 mps 637 mmHg 73%
    05:00 +19°C° 0.2 mm 2 mps 638 mmHg 73%
    06:00 +19°C° 0.2 mm 2 mps 638 mmHg 72%
    07:00 +21°C° 0.1 mm 2 mps 638 mmHg 66%
    08:00 +24°C° 0.1 mm 2 mps 639 mmHg 59%
    09:00 +26°C° 0.1 mm 1 mps 639 mmHg 53%
    10:00 +27°C° 0.2 mm 2 mps 639 mmHg 48%
    11:00 +29°C° 0.2 mm 2 mps 639 mmHg 42%
    12:00 +30°C° 0.2 mm 2 mps 639 mmHg 37%
    13:00 +31°C° 0.1 mm 2 mps 639 mmHg 34%
    14:00 +32°C° 0.1 mm 2 mps 639 mmHg 32%
    15:00 +32°C° 0.1 mm 2 mps 639 mmHg 30%
    16:00 +31°C° 0.2 mm 3 mps 639 mmHg 35%
    17:00 +30°C° 0.2 mm 3 mps 638 mmHg 40%
    18:00 +29°C° 0.2 mm 3 mps 638 mmHg 46%
    19:00 +27°C° 0.1 mm 3 mps 638 mmHg 51%
    20:00 +25°C° 0.1 mm 4 mps 638 mmHg 57%
    21:00 +22°C° 0.1 mm 4 mps 638 mmHg 62%
    22:00 +21°C° 0 mm 4 mps 638 mmHg 62%
    23:00 +21°C° 0 mm 3 mps 638 mmHg 63%
    Show more